Location: Unspecified
(42.8178°N, 0.0000°E)
Time: 04:47:03
(UTC+00:00)

Injun/Solrad 3 - Visible Passes

Search period start: 04 April 2026 00:00
Search period end: 14 April 2026 00:00
Orbit: 870 x 986 km, 66.8° (Epoch: 29 March)

Date Brightness Start Highest point End Pass type
(mag) Time Alt. Az. Time Alt. Az. Time Alt. Az.
4 Apr 9.1 01:42:00 37° N 01:42:00 37° N 01:45:50 10° NNE visible
4 Apr 9.9 03:25:37 12° NW 03:27:48 14° NNW 03:30:56 10° N visible
5 Apr 10.2 00:08:56 16° NE 00:08:56 16° NE 00:10:08 10° NE visible
5 Apr 9.1 01:52:33 33° NNW 01:52:33 33° NNW 01:56:43 10° NNE visible
5 Apr 10.2 03:37:59 10° NW 03:39:28 11° NNW 03:40:57 10° N visible
6 Apr 9.9 00:19:27 21° NE 00:19:27 21° NE 00:21:25 10° NE visible
6 Apr 9.4 02:03:03 27° NNW 02:03:03 27° NNW 02:07:31 10° NNE visible
7 Apr 9.6 00:29:56 27° NNE 00:29:56 27° NNE 00:32:32 10° NNE visible
7 Apr 9.6 02:13:32 20° NW 02:13:46 20° NW 02:18:14 10° N visible
8 Apr 9.4 00:40:22 31° NNE 00:40:22 31° NNE 00:43:33 10° NNE visible
8 Apr 9.9 02:23:58 14° NW 02:25:18 15° NNW 02:28:49 10° N visible
8 Apr 10.3 23:07:11 12° NE 23:07:11 12° NE 23:07:42 10° NE visible
9 Apr 9.4 00:50:47 32° N 00:50:47 32° N 00:54:28 10° NNE visible
9 Apr 10.2 02:34:46 10° NW 02:36:56 12° NNW 02:39:06 10° N visible
9 Apr 10.0 23:17:32 18° NE 23:17:32 18° NE 23:19:03 10° NE visible
10 Apr 9.4 01:01:08 28° NNW 01:01:08 28° NNW 01:05:18 10° NNE visible
10 Apr 9.7 23:27:52 24° NE 23:27:52 24° NE 23:30:13 10° NNE visible
11 Apr 9.7 01:11:27 22° NW 01:11:27 22° NW 01:16:03 10° N visible
11 Apr 9.4 23:38:07 31° NNE 23:38:07 31° NNE 23:41:15 10° NNE visible
12 Apr 10.0 01:21:43 16° NW 01:22:48 17° NW 01:26:41 10° N visible
12 Apr 10.1 22:04:44 12° NE 22:04:44 12° NE 22:05:13 10° NE visible
12 Apr 9.2 23:48:19 35° N 23:48:19 35° N 23:52:11 10° NNE visible
13 Apr 10.3 01:31:54 10° NW 01:34:23 13° NNW 01:37:07 10° N visible
13 Apr 9.7 22:14:51 19° NE 22:14:51 19° NE 22:16:39 10° NE visible
